This is the latest recevied weather packets stored in our database for station/object KE1THD. If no packets are shown the sender has not sent any weather packets the latest 10 day(s).
| Time | Temp. | Humidity | Pressure | Rain* | Wind** | Luminosity | Snow |
|---|---|---|---|---|---|---|---|
| 1777814740 | 10° C | 68% | 1013.5 hPa | 0 mm | - | 77 W/m² | - |
| 1777814437 | 10° C | 68% | 1013.6 hPa | 0 mm | - | 51 W/m² | - |
| 1777814134 | 10° C | 67% | 1013.3 hPa | 0 mm | - | 21 W/m² | - |
| 1777813831 | 10° C | 66% | 1013.4 hPa | 0 mm | - | 54 W/m² | - |
| 1777813528 | 10° C | 65% | 1013.8 hPa | 0 mm | - | 32 W/m² | - |
| 1777813226 | 10° C | 65% | 1013.5 hPa | 0 mm | - | 39 W/m² | - |
| 1777812924 | 10° C | 65% | 1013.5 hPa | 0 mm | - | 46 W/m² | - |
| 1777812621 | 10° C | 63% | 1013.7 hPa | 0 mm | - | 30 W/m² | - |
| 1777812317 | 10° C | 62% | 1013.9 hPa | 0 mm | - | 19 W/m² | - |
| 1777812015 | 10° C | 60% | 1013.9 hPa | 0 mm | - | 18 W/m² | - |
| 1777811714 | 10° C | 62% | 1013.4 hPa | 0 mm | - | 46 W/m² | - |
| 1777811410 | 10.56° C | 61% | 1013.8 hPa | 0 mm | - | 27 W/m² | - |
| 1777811106 | 10° C | 59% | 1013.5 hPa | 0 mm | - | 26 W/m² | - |
| 1777810804 | 10° C | 59% | 1013.8 hPa | 0 mm | - | 22 W/m² | - |
| 1777810501 | 10° C | 59% | 1013.7 hPa | 0 mm | - | 23 W/m² | - |
| 1777810196 | 10° C | 59% | 1014 hPa | 0 mm | - | 12 W/m² | - |
| 1777809893 | 10° C | 60% | 1013.7 hPa | 0 mm | - | 6 W/m² | - |
| 1777809592 | 10° C | 59% | 1013.9 hPa | 0 mm | - | 5 W/m² | - |
| 1777809289 | 10° C | 59% | 1014.1 hPa | 0 mm | - | 7 W/m² | - |
| 1777808986 | 10° C | 59% | 1014.1 hPa | 0 mm | - | 5 W/m² | - |
| 1777808684 | 10° C | 59% | 1014.3 hPa | 0 mm | - | 2 W/m² | - |
| 1777808380 | 10.56° C | 58% | 1014.2 hPa | 0 mm | - | 2 W/m² | - |
| 1777808078 | 10.56° C | 58% | 1014.1 hPa | 0 mm | - | 3 W/m² | - |
| 1777807776 | 10.56° C | 57% | 1014 hPa | 0 mm | - | 7 W/m² | - |
| 1777807474 | 10.56° C | 56% | 1013.9 hPa | 0 mm | - | 7 W/m² | - |
* Rain latest hour (hover to see other rain measurements)
** Current wind speed in m/s (hover to see current wind gust speed)